Time,TemperatureF,DewpointF,PressureIn,WindDirection,WindDirectionDegrees,WindSpeedMPH,WindSpeedGustMPH,Humidity,HourlyPrecipIn,Conditions,Clouds,dailyrainin,SoftwareType,DateUTC
2013-07-13 00:01:00,68.2,37.9,30.21,ENE,68,0.0,0.0,33,0.00,,,0.00,meteohub,2013-07-13 04:01:00,
2013-07-13 00:02:00,68.2,37.9,30.21,ENE,68,0.0,0.0,33,0.00,,,0.00,meteohub,2013-07-13 04:02:00,
2013-07-13 00:03:00,68.2,37.9,30.21,ENE,68,0.0,0.0,33,0.00,,,0.00,meteohub,2013-07-13 04:03:00,
2013-07-13 00:04:00,68.2,37.9,30.21,ENE,68,0.0,0.0,33,0.00,,,0.00,meteohub,2013-07-13 04:04:00,
2013-07-13 00:09:00,68.0,37.9,30.21,ENE,68,0.0,0.0,33,0.00,,,0.00,meteohub,2013-07-13 04:09:00,
2013-07-13 00:14:00,67.6,38.3,30.21,ENE,68,0.0,0.0,34,0.00,,,0.00,meteohub,2013-07-13 04:14:00,
2013-07-13 00:20:00,67.5,38.1,30.21,ENE,68,0.0,0.0,34,0.00,,,0.00,meteohub,2013-07-13 04:20:00,
2013-07-13 00:25:00,67.3,37.9,30.21,ENE,68,0.0,0.0,34,0.00,,,0.00,meteohub,2013-07-13 04:25:00,
2013-07-13 00:30:00,67.1,39.2,30.21,ENE,68,0.0,0.0,36,0.00,,,0.00,meteohub,2013-07-13 04:30:00,
2013-07-13 00:35:00,66.9,38.5,30.21,ENE,68,0.0,0.0,35,0.00,,,0.00,meteohub,2013-07-13 04:35:00,
2013-07-13 00:40:00,66.9,38.5,30.21,ENE,68,0.0,0.0,35,0.00,,,0.00,meteohub,2013-07-13 04:40:00,
2013-07-13 00:45:00,66.9,38.5,30.21,ENE,68,0.0,0.0,35,0.00,,,0.00,meteohub,2013-07-13 04:45:00,
2013-07-13 00:50:00,66.9,39.2,30.21,ENE,68,0.0,0.0,36,0.00,,,0.00,meteohub,2013-07-13 04:50:00,
2013-07-13 00:55:00,66.7,39.0,30.21,ENE,68,0.0,0.0,36,0.00,,,0.00,meteohub,2013-07-13 04:55:00,
2013-07-13 01:00:00,66.7,39.0,30.21,ENE,68,0.0,0.0,36,0.00,,,0.00,meteohub,2013-07-13 05:00:00,
2013-07-13 01:05:00,66.6,38.8,30.21,ENE,68,0.0,0.0,36,0.00,,,0.00,meteohub,2013-07-13 05:05:00,
2013-07-13 01:11:00,66.4,38.7,30.21,ENE,68,0.0,0.0,36,0.00,,,0.00,meteohub,2013-07-13 05:11:00,
2013-07-13 01:16:00,66.2,39.2,30.21,ENE,68,0.0,0.0,37,0.00,,,0.00,meteohub,2013-07-13 05:16:00,
2013-07-13 01:21:00,66.0,39.7,30.21,ENE,68,0.0,0.0,38,0.00,,,0.00,meteohub,2013-07-13 05:21:00,
2013-07-13 01:26:00,65.8,39.6,30.21,ENE,68,0.0,0.0,38,0.00,,,0.00,meteohub,2013-07-13 05:26:00,
2013-07-13 01:31:00,65.7,40.1,30.21,ENE,68,0.0,0.0,39,0.00,,,0.00,meteohub,2013-07-13 05:31:00,
2013-07-13 01:36:00,65.3,39.0,30.21,ENE,68,0.0,0.0,38,0.00,,,0.00,meteohub,2013-07-13 05:36:00,
2013-07-13 01:41:00,65.1,39.6,30.21,ENE,68,0.0,0.0,39,0.00,,,0.00,meteohub,2013-07-13 05:41:00,
2013-07-13 01:46:00,65.1,40.3,30.21,ENE,68,0.0,0.0,40,0.00,,,0.00,meteohub,2013-07-13 05:46:00,
2013-07-13 01:51:00,65.1,39.6,30.21,ENE,68,0.0,0.0,39,0.00,,,0.00,meteohub,2013-07-13 05:51:00,
2013-07-13 01:56:00,65.1,40.3,30.21,ENE,68,0.0,0.0,40,0.00,,,0.00,meteohub,2013-07-13 05:56:00,
2013-07-13 02:01:00,65.1,40.3,30.21,ENE,68,0.0,0.0,40,0.00,,,0.00,meteohub,2013-07-13 06:01:00,
2013-07-13 02:07:00,65.1,40.8,30.21,ENE,68,0.0,0.0,41,0.00,,,0.00,meteohub,2013-07-13 06:07:00,
2013-07-13 02:12:00,65.1,40.3,30.21,ENE,68,0.0,0.0,40,0.00,,,0.00,meteohub,2013-07-13 06:12:00,
2013-07-13 02:17:00,65.1,40.3,30.21,ENE,68,0.0,0.0,40,0.00,,,0.00,meteohub,2013-07-13 06:17:00,
2013-07-13 02:22:00,65.1,40.3,30.21,ENE,68,0.0,0.0,40,0.00,,,0.00,meteohub,2013-07-13 06:22:00,
2013-07-13 02:27:00,64.9,40.1,30.21,ENE,68,0.0,0.0,40,0.00,,,0.00,meteohub,2013-07-13 06:27:00,
2013-07-13 02:32:00,64.9,40.1,30.21,ENE,68,0.0,0.0,40,0.00,,,0.00,meteohub,2013-07-13 06:32:00,
2013-07-13 02:37:00,64.8,40.5,30.21,ENE,68,0.0,0.0,41,0.00,,,0.00,meteohub,2013-07-13 06:37:00,
2013-07-13 02:42:00,64.8,40.5,30.21,ENE,68,0.0,0.0,41,0.00,,,0.00,meteohub,2013-07-13 06:42:00,
2013-07-13 02:47:00,64.6,39.7,30.21,ENE,68,0.0,0.0,40,0.00,,,0.00,meteohub,2013-07-13 06:47:00,
2013-07-13 02:52:00,64.4,39.6,30.21,ENE,68,0.0,0.0,40,0.00,,,0.00,meteohub,2013-07-13 06:52:00,
2013-07-13 02:57:00,64.4,39.6,30.21,ENE,68,0.0,0.0,40,0.00,,,0.00,meteohub,2013-07-13 06:57:00,
2013-07-13 03:02:00,64.2,39.4,30.21,ENE,68,0.0,0.0,40,0.00,,,0.00,meteohub,2013-07-13 07:02:00,
2013-07-13 03:07:00,64.4,40.3,30.21,ENE,68,0.0,0.0,41,0.00,,,0.00,meteohub,2013-07-13 07:07:00,
2013-07-13 03:12:00,64.2,40.1,30.21,ENE,68,0.0,0.0,41,0.00,,,0.00,meteohub,2013-07-13 07:12:00,
2013-07-13 03:17:00,63.9,39.0,30.21,ENE,68,0.0,0.0,40,0.00,,,0.00,meteohub,2013-07-13 07:17:00,
2013-07-13 03:23:00,63.9,39.7,30.21,ENE,68,0.0,0.0,41,0.00,,,0.00,meteohub,2013-07-13 07:23:00,
2013-07-13 03:28:00,63.5,38.8,30.21,ENE,68,0.0,0.0,40,0.00,,,0.00,meteohub,2013-07-13 07:28:00,
2013-07-13 03:33:00,63.5,38.8,30.21,ENE,68,0.0,0.0,40,0.00,,,0.00,meteohub,2013-07-13 07:33:00,
2013-07-13 03:38:00,63.5,39.4,30.21,ENE,68,0.0,0.0,41,0.00,,,0.00,meteohub,2013-07-13 07:38:00,
2013-07-13 03:43:00,63.1,39.0,30.21,ENE,68,0.0,0.0,41,0.00,,,0.00,meteohub,2013-07-13 07:43:00,
2013-07-13 03:48:00,63.0,39.6,30.21,ENE,68,0.0,0.0,42,0.00,,,0.00,meteohub,2013-07-13 07:48:00,
2013-07-13 03:53:00,63.0,39.6,30.21,ENE,68,0.0,0.0,42,0.00,,,0.00,meteohub,2013-07-13 07:53:00,
2013-07-13 03:58:00,62.8,39.9,30.18,ENE,68,0.0,0.0,43,0.00,,,0.00,meteohub,2013-07-13 07:58:00,
2013-07-13 04:03:00,62.6,39.7,30.18,ENE,68,0.0,0.0,43,0.00,,,0.00,meteohub,2013-07-13 08:03:00,
2013-07-13 04:08:00,62.6,39.7,30.18,ENE,68,0.0,0.0,43,0.00,,,0.00,meteohub,2013-07-13 08:08:00,
2013-07-13 04:13:00,62.4,40.3,30.18,ENE,68,0.0,0.0,44,0.00,,,0.00,meteohub,2013-07-13 08:13:00,
2013-07-13 04:19:00,62.2,40.1,30.18,ENE,68,0.0,0.0,44,0.00,,,0.00,meteohub,2013-07-13 08:19:00,
2013-07-13 04:24:00,62.2,40.1,30.18,ENE,68,0.0,0.0,44,0.00,,,0.00,meteohub,2013-07-13 08:24:00,
2013-07-13 04:29:00,62.2,40.6,30.21,ENE,68,0.0,0.0,45,0.00,,,0.00,meteohub,2013-07-13 08:29:00,
2013-07-13 04:34:00,62.1,40.5,30.21,ENE,68,0.0,0.0,45,0.00,,,0.00,meteohub,2013-07-13 08:34:00,
2013-07-13 04:39:00,61.9,40.3,30.21,ENE,68,0.0,0.0,45,0.00,,,0.00,meteohub,2013-07-13 08:39:00,
2013-07-13 04:44:00,61.9,40.8,30.21,ENE,68,0.0,0.0,46,0.00,,,0.00,meteohub,2013-07-13 08:44:00,
2013-07-13 04:49:00,61.9,40.8,30.21,ENE,68,0.0,0.0,46,0.00,,,0.00,meteohub,2013-07-13 08:49:00,
2013-07-13 04:54:00,61.7,40.8,30.21,ENE,68,0.0,0.0,46,0.00,,,0.00,meteohub,2013-07-13 08:54:00,
2013-07-13 04:59:00,61.7,40.8,30.21,ENE,68,0.0,0.0,46,0.00,,,0.00,meteohub,2013-07-13 08:59:00,
2013-07-13 05:04:00,61.5,40.6,30.21,ENE,68,0.0,0.0,46,0.00,,,0.00,meteohub,2013-07-13 09:04:00,
2013-07-13 05:09:00,61.3,40.5,30.21,ENE,68,0.0,0.0,46,0.00,,,0.00,meteohub,2013-07-13 09:09:00,
2013-07-13 05:15:00,61.3,41.0,30.21,ENE,68,0.0,0.0,47,0.00,,,0.00,meteohub,2013-07-13 09:15:00,
2013-07-13 05:20:00,61.5,41.2,30.21,ENE,68,0.0,0.0,47,0.00,,,0.00,meteohub,2013-07-13 09:20:00,
2013-07-13 05:25:00,61.5,41.2,30.21,ENE,68,0.0,0.0,47,0.00,,,0.00,meteohub,2013-07-13 09:25:00,
2013-07-13 05:30:00,61.5,41.2,30.21,ENE,68,0.0,0.0,47,0.00,,,0.00,meteohub,2013-07-13 09:30:00,
2013-07-13 05:35:00,61.3,41.0,30.21,ENE,68,0.0,0.0,47,0.00,,,0.00,meteohub,2013-07-13 09:35:00,
2013-07-13 05:40:00,61.5,41.7,30.21,ENE,68,0.0,0.0,48,0.00,,,0.00,meteohub,2013-07-13 09:40:00,
2013-07-13 05:45:00,61.5,41.7,30.24,ENE,68,0.0,0.0,48,0.00,,,0.00,meteohub,2013-07-13 09:45:00,
2013-07-13 05:50:00,61.7,42.4,30.24,ENE,68,0.0,0.0,49,0.00,,,0.00,meteohub,2013-07-13 09:50:00,
2013-07-13 05:55:00,61.7,42.4,30.24,ENE,68,0.0,0.0,49,0.00,,,0.00,meteohub,2013-07-13 09:55:00,
2013-07-13 06:00:00,61.7,42.4,30.24,ENE,68,0.0,0.0,49,0.00,,,0.00,meteohub,2013-07-13 10:00:00,
2013-07-13 06:05:00,61.7,42.4,30.24,ENE,68,0.0,0.0,49,0.00,,,0.00,meteohub,2013-07-13 10:05:00,
2013-07-13 06:10:00,61.7,42.4,30.24,ENE,68,0.0,0.0,49,0.00,,,0.00,meteohub,2013-07-13 10:10:00,
2013-07-13 06:11:00,61.7,42.4,30.24,ENE,68,0.0,0.0,49,0.00,,,0.00,meteohub,2013-07-13 10:11:00,
2013-07-13 06:16:00,61.7,42.4,30.24,ENE,68,0.0,0.0,49,0.00,,,0.00,meteohub,2013-07-13 10:16:00,
2013-07-13 06:21:00,61.7,43.3,30.24,ENE,68,0.0,0.0,51,0.00,,,0.00,meteohub,2013-07-13 10:21:00,
2013-07-13 06:26:00,61.7,43.0,30.24,ENE,68,0.0,0.0,50,0.00,,,0.00,meteohub,2013-07-13 10:26:00,
2013-07-13 06:31:00,61.9,43.0,30.24,ENE,68,0.0,0.0,50,0.00,,,0.00,meteohub,2013-07-13 10:31:00,
2013-07-13 06:36:00,62.1,44.2,30.24,ENE,68,0.0,0.0,52,0.00,,,0.00,meteohub,2013-07-13 10:36:00,
2013-07-13 06:41:00,62.1,44.2,30.27,ENE,68,0.0,0.0,52,0.00,,,0.00,meteohub,2013-07-13 10:41:00,
2013-07-13 06:47:00,62.2,44.4,30.27,ENE,68,0.0,0.0,52,0.00,,,0.00,meteohub,2013-07-13 10:47:00,
2013-07-13 06:52:00,62.2,44.4,30.27,ENE,68,0.0,0.0,52,0.00,,,0.00,meteohub,2013-07-13 10:52:00,
2013-07-13 06:57:00,62.6,46.8,30.27,ENE,68,0.0,0.0,56,0.00,,,0.00,meteohub,2013-07-13 10:57:00,
2013-07-13 07:02:00,62.8,47.3,30.27,ENE,68,0.0,0.0,57,0.00,,,0.00,meteohub,2013-07-13 11:02:00,
2013-07-13 07:07:00,63.0,48.0,30.27,ENE,68,0.0,0.0,58,0.00,,,0.00,meteohub,2013-07-13 11:07:00,
2013-07-13 07:12:00,63.1,48.2,30.27,NE,45,0.0,0.0,58,0.00,,,0.00,meteohub,2013-07-13 11:12:00,
2013-07-13 07:17:00,63.5,48.0,30.27,ENE,68,0.0,0.0,57,0.00,,,0.00,meteohub,2013-07-13 11:17:00,
2013-07-13 07:22:00,63.7,48.6,30.27,ENE,68,0.0,0.0,58,0.00,,,0.00,meteohub,2013-07-13 11:22:00,
2013-07-13 07:27:00,64.0,51.3,30.24,ENE,68,0.0,0.0,63,0.00,,,0.00,meteohub,2013-07-13 11:27:00,
2013-07-13 07:32:00,64.2,50.9,30.24,NE,45,0.0,0.0,62,0.00,,,0.00,meteohub,2013-07-13 11:32:00,
2013-07-13 07:37:00,64.4,50.2,30.24,NNE,22,0.0,0.0,60,0.00,,,0.00,meteohub,2013-07-13 11:37:00,
2013-07-13 07:42:00,65.3,53.6,30.24,North,0,0.0,0.0,66,0.00,,,0.00,meteohub,2013-07-13 11:42:00,
2013-07-13 07:47:00,65.8,53.4,30.24,NE,45,0.0,0.0,64,0.00,,,0.00,meteohub,2013-07-13 11:47:00,
2013-07-13 07:52:00,66.2,53.2,30.24,NE,45,0.0,0.0,63,0.00,,,0.00,meteohub,2013-07-13 11:52:00,
2013-07-13 07:57:00,66.7,54.7,30.24,NNE,22,0.0,0.0,65,0.00,,,0.00,meteohub,2013-07-13 11:57:00,
2013-07-13 08:02:00,66.9,53.4,30.24,ENE,68,0.0,0.0,62,0.00,,,0.00,meteohub,2013-07-13 12:02:00,
2013-07-13 08:07:00,67.3,53.8,30.24,SSE,158,0.0,0.0,62,0.00,,,0.00,meteohub,2013-07-13 12:07:00,
2013-07-13 08:12:00,67.6,53.2,30.24,SSE,158,0.0,0.0,60,0.00,,,0.00,meteohub,2013-07-13 12:12:00,
2013-07-13 08:17:00,68.0,52.2,30.24,East,90,0.0,0.0,57,0.00,,,0.00,meteohub,2013-07-13 12:17:00,
2013-07-13 08:22:00,68.7,52.3,30.24,SW,225,0.0,0.0,56,0.00,,,0.00,meteohub,2013-07-13 12:22:00,
2013-07-13 08:27:00,69.3,52.9,30.24,East,90,0.0,0.0,56,0.00,,,0.00,meteohub,2013-07-13 12:27:00,
2013-07-13 08:32:00,70.3,53.4,30.24,SSE,158,0.0,0.0,55,0.00,,,0.00,meteohub,2013-07-13 12:32:00,
2013-07-13 08:37:00,71.1,53.1,30.24,East,90,0.0,0.0,53,0.00,,,0.00,meteohub,2013-07-13 12:37:00,
2013-07-13 08:42:00,71.8,52.2,30.24,ENE,68,0.0,0.0,50,0.00,,,0.00,meteohub,2013-07-13 12:42:00,
2013-07-13 08:47:00,72.0,45.0,30.24,SSE,158,0.0,0.0,38,0.00,,,0.00,meteohub,2013-07-13 12:47:00,
2013-07-13 08:52:00,72.1,42.3,30.24,East,90,0.0,0.0,34,0.00,,,0.00,meteohub,2013-07-13 12:52:00,
2013-07-13 08:57:00,72.1,40.6,30.24,ESE,112,0.0,0.0,32,0.00,,,0.00,meteohub,2013-07-13 12:57:00,
2013-07-13 09:02:00,72.5,41.7,30.21,SE,135,0.0,0.0,33,0.00,,,0.00,meteohub,2013-07-13 13:02:00,
2013-07-13 09:07:00,72.5,36.7,30.21,SSE,158,0.0,0.0,27,0.00,,,0.00,meteohub,2013-07-13 13:07:00,
2013-07-13 09:12:00,72.5,35.8,30.21,ESE,112,0.0,1.0,26,0.00,,,0.00,meteohub,2013-07-13 13:12:00,
2013-07-13 09:17:00,72.7,36.9,30.21,NNE,22,0.0,1.0,27,0.00,,,0.00,meteohub,2013-07-13 13:17:00,
2013-07-13 09:22:00,72.9,35.1,30.21,NE,45,0.0,1.0,25,0.00,,,0.00,meteohub,2013-07-13 13:22:00,
2013-07-13 09:27:00,73.0,34.2,30.21,South,180,0.0,1.0,24,0.00,,,0.00,meteohub,2013-07-13 13:27:00,
2013-07-13 09:32:00,73.4,35.4,30.21,SSE,158,0.0,1.0,25,0.00,,,0.00,meteohub,2013-07-13 13:32:00,
2013-07-13 09:37:00,73.9,36.9,30.21,SE,135,0.0,0.0,26,0.00,,,0.00,meteohub,2013-07-13 13:37:00,
2013-07-13 09:42:00,74.1,31.8,30.21,SW,225,0.0,0.0,21,0.00,,,0.00,meteohub,2013-07-13 13:42:00,
2013-07-13 09:47:00,74.7,32.2,30.21,ESE,112,0.0,0.0,21,0.00,,,0.00,meteohub,2013-07-13 13:47:00,
2013-07-13 09:52:00,74.8,32.4,30.21,East,90,0.0,0.0,21,0.00,,,0.00,meteohub,2013-07-13 13:52:00,
2013-07-13 09:57:00,74.8,25.7,30.21,SE,135,0.0,0.0,16,0.00,,,0.00,meteohub,2013-07-13 13:57:00,
2013-07-13 10:02:00,75.0,28.8,30.21,NNE,22,0.0,1.0,18,0.00,,,0.00,meteohub,2013-07-13 14:02:00,
2013-07-13 10:07:00,75.0,25.9,30.21,SSE,158,0.0,1.0,16,0.00,,,0.00,meteohub,2013-07-13 14:07:00,
2013-07-13 10:12:00,75.4,24.6,30.21,SE,135,0.0,1.0,15,0.00,,,0.00,meteohub,2013-07-13 14:12:00,
2013-07-13 10:17:00,75.9,25.0,30.21,South,180,0.0,0.0,15,0.00,,,0.00,meteohub,2013-07-13 14:17:00,
2013-07-13 10:22:00,76.5,25.5,30.21,East,90,0.0,1.0,15,0.00,,,0.00,meteohub,2013-07-13 14:22:00,
2013-07-13 10:27:00,76.6,25.5,30.24,ENE,68,0.0,1.0,15,0.00,,,0.00,meteohub,2013-07-13 14:27:00,
2013-07-13 10:32:00,76.8,25.7,30.24,ENE,68,0.0,1.0,15,0.00,,,0.00,meteohub,2013-07-13 14:32:00,
2013-07-13 10:37:00,77.2,26.1,30.24,South,180,0.0,1.0,15,0.00,,,0.00,meteohub,2013-07-13 14:37:00,
2013-07-13 10:42:00,77.9,26.6,30.24,NW,315,0.0,1.0,15,0.00,,,0.00,meteohub,2013-07-13 14:42:00,
2013-07-13 10:47:00,78.6,27.1,30.24,ESE,112,0.0,1.0,15,0.00,,,0.00,meteohub,2013-07-13 14:47:00,
2013-07-13 10:52:00,79.3,27.7,30.24,SSE,158,0.0,1.0,15,0.00,,,0.00,meteohub,2013-07-13 14:52:00,
2013-07-13 10:57:00,79.3,27.7,30.24,WNW,292,0.0,1.0,15,0.00,,,0.00,meteohub,2013-07-13 14:57:00,
2013-07-13 11:02:00,79.9,28.2,30.24,ENE,68,0.0,1.0,15,0.00,,,0.00,meteohub,2013-07-13 15:02:00,
2013-07-13 11:07:00,79.7,28.0,30.24,NNW,338,1.0,1.0,15,0.00,,,0.00,meteohub,2013-07-13 15:07:00,
2013-07-13 11:12:00,79.2,27.7,30.24,SE,135,0.0,1.0,15,0.00,,,0.00,meteohub,2013-07-13 15:12:00,
2013-07-13 11:17:00,79.3,27.7,30.24,West,270,0.0,1.0,15,0.00,,,0.00,meteohub,2013-07-13 15:17:00,
2013-07-13 11:22:00,80.1,28.2,30.24,ESE,112,0.0,1.0,15,0.00,,,0.00,meteohub,2013-07-13 15:22:00,
2013-07-13 11:27:00,80.1,28.2,30.21,East,90,0.0,1.0,15,0.00,,,0.00,meteohub,2013-07-13 15:27:00,
2013-07-13 11:32:00,80.2,28.4,30.21,ENE,68,0.0,1.0,15,0.00,,,0.00,meteohub,2013-07-13 15:32:00,
2013-07-13 11:37:00,80.6,27.1,30.21,ENE,68,0.0,1.0,14,0.00,,,0.00,meteohub,2013-07-13 15:37:00,
2013-07-13 11:42:00,81.0,27.3,30.21,SSE,158,0.0,1.0,14,0.00,,,0.00,meteohub,2013-07-13 15:42:00,
2013-07-13 11:47:00,81.5,27.9,30.21,ENE,68,0.0,1.0,14,0.00,,,0.00,meteohub,2013-07-13 15:47:00,
2013-07-13 11:52:00,81.5,27.9,30.21,South,180,0.0,1.0,14,0.00,,,0.00,meteohub,2013-07-13 15:52:00,
2013-07-13 11:57:00,81.1,27.5,30.21,South,180,0.0,1.0,14,0.00,,,0.00,meteohub,2013-07-13 15:57:00,
2013-07-13 12:02:00,81.3,27.7,30.24,SE,135,0.0,1.0,14,0.00,,,0.00,meteohub,2013-07-13 16:02:00,
2013-07-13 12:07:00,81.9,28.0,30.24,NNE,22,0.0,1.0,14,0.00,,,0.00,meteohub,2013-07-13 16:07:00,
2013-07-13 12:12:00,82.2,28.4,30.21,SSE,158,1.0,1.0,14,0.00,,,0.00,meteohub,2013-07-13 16:12:00,
2013-07-13 12:17:00,81.9,28.0,30.21,ESE,112,0.0,1.0,14,0.00,,,0.00,meteohub,2013-07-13 16:17:00,
2013-07-13 12:22:00,82.4,28.4,30.21,ENE,68,0.0,1.0,14,0.00,,,0.00,meteohub,2013-07-13 16:22:00,
2013-07-13 12:27:00,82.4,22.6,30.21,WSW,248,0.0,1.0,11,0.00,,,0.00,meteohub,2013-07-13 16:27:00,
2013-07-13 12:32:00,82.6,22.8,30.24,ESE,112,0.0,0.0,11,0.00,,,0.00,meteohub,2013-07-13 16:32:00,
2013-07-13 12:37:00,82.4,28.4,30.24,NNE,22,0.0,0.0,14,0.00,,,0.00,meteohub,2013-07-13 16:37:00,
2013-07-13 12:42:00,82.6,28.6,30.21,East,90,0.0,0.0,14,0.00,,,0.00,meteohub,2013-07-13 16:42:00,
2013-07-13 12:47:00,83.1,29.1,30.21,ENE,68,0.0,0.0,14,0.00,,,0.00,meteohub,2013-07-13 16:47:00,
2013-07-13 12:52:00,83.7,29.5,30.21,East,90,0.0,0.0,14,0.00,,,0.00,meteohub,2013-07-13 16:52:00,
2013-07-13 12:57:00,82.9,28.9,30.21,SSE,158,0.0,1.0,14,0.00,,,0.00,meteohub,2013-07-13 16:57:00,
2013-07-13 13:02:00,82.8,23.0,30.21,ENE,68,0.0,1.0,11,0.00,,,0.00,meteohub,2013-07-13 17:02:00,
2013-07-13 13:07:00,83.3,29.1,30.21,North,0,0.0,1.0,14,0.00,,,0.00,meteohub,2013-07-13 17:07:00,
2013-07-13 13:12:00,83.5,29.3,30.21,NNE,22,0.0,1.0,14,0.00,,,0.00,meteohub,2013-07-13 17:12:00,
2013-07-13 13:17:00,83.3,23.4,30.21,SE,135,0.0,0.0,11,0.00,,,0.00,meteohub,2013-07-13 17:17:00,
2013-07-13 13:22:00,83.5,29.3,30.21,East,90,0.0,0.0,14,0.00,,,0.00,meteohub,2013-07-13 17:22:00,
2013-07-13 13:27:00,83.8,23.7,30.21,South,180,0.0,1.0,11,0.00,,,0.00,meteohub,2013-07-13 17:27:00,
2013-07-13 13:32:00,84.0,29.8,30.21,NE,45,0.0,1.0,14,0.00,,,0.00,meteohub,2013-07-13 17:32:00,
2013-07-13 13:37:00,83.5,29.3,30.21,NW,315,0.0,1.0,14,0.00,,,0.00,meteohub,2013-07-13 17:37:00,
2013-07-13 13:42:00,83.8,29.7,30.21,ESE,112,0.0,1.0,14,0.00,,,0.00,meteohub,2013-07-13 17:42:00,
2013-07-13 13:47:00,83.8,29.7,30.21,ESE,112,0.0,0.0,14,0.00,,,0.00,meteohub,2013-07-13 17:47:00,
2013-07-13 13:52:00,84.0,23.9,30.21,SSW,202,0.0,1.0,11,0.00,,,0.00,meteohub,2013-07-13 17:52:00,
2013-07-13 13:57:00,84.0,29.8,30.21,East,90,0.0,1.0,14,0.00,,,0.00,meteohub,2013-07-13 17:57:00,
2013-07-13 14:02:00,83.5,23.5,30.21,ENE,68,0.0,1.0,11,0.00,,,0.00,meteohub,2013-07-13 18:02:00,
2013-07-13 14:07:00,83.5,23.5,30.21,SE,135,0.0,1.0,11,0.00,,,0.00,meteohub,2013-07-13 18:07:00,
2013-07-13 14:12:00,84.0,23.9,30.21,SSE,158,0.0,1.0,11,0.00,,,0.00,meteohub,2013-07-13 18:12:00,
2013-07-13 14:17:00,84.0,23.9,30.21,WSW,248,0.0,1.0,11,0.00,,,0.00,meteohub,2013-07-13 18:17:00,
2013-07-13 14:22:00,84.2,24.1,30.21,ENE,68,0.0,1.0,11,0.00,,,0.00,meteohub,2013-07-13 18:22:00,
2013-07-13 14:27:00,84.4,24.3,30.21,SE,135,0.0,1.0,11,0.00,,,0.00,meteohub,2013-07-13 18:27:00,
2013-07-13 14:32:00,84.7,24.4,30.21,ENE,68,0.0,1.0,11,0.00,,,0.00,meteohub,2013-07-13 18:32:00,
2013-07-13 14:37:00,84.9,24.6,30.21,ENE,68,0.0,1.0,11,0.00,,,0.00,meteohub,2013-07-13 18:37:00,
2013-07-13 14:42:00,84.9,24.6,30.21,East,90,0.0,1.0,11,0.00,,,0.00,meteohub,2013-07-13 18:42:00,
2013-07-13 14:47:00,85.3,28.9,30.21,East,90,0.0,0.0,13,0.00,,,0.00,meteohub,2013-07-13 18:47:00,
2013-07-13 14:52:00,85.1,24.8,30.21,ENE,68,0.0,0.0,11,0.00,,,0.00,meteohub,2013-07-13 18:52:00,
2013-07-13 14:57:00,84.6,28.4,30.21,NNW,338,0.0,0.0,13,0.00,,,0.00,meteohub,2013-07-13 18:57:00,
2013-07-13 15:02:00,84.4,24.3,30.21,ENE,68,0.0,1.0,11,0.00,,,0.00,meteohub,2013-07-13 19:02:00,
2013-07-13 15:07:00,84.6,28.4,30.21,NE,45,0.0,1.0,13,0.00,,,0.00,meteohub,2013-07-13 19:07:00,
2013-07-13 15:12:00,84.6,28.4,30.21,ESE,112,0.0,1.0,13,0.00,,,0.00,meteohub,2013-07-13 19:12:00,
2013-07-13 15:17:00,85.1,28.8,30.21,ESE,112,0.0,1.0,13,0.00,,,0.00,meteohub,2013-07-13 19:17:00,
2013-07-13 15:22:00,85.1,28.8,30.21,SW,225,0.0,1.0,13,0.00,,,0.00,meteohub,2013-07-13 19:22:00,
2013-07-13 15:27:00,85.3,25.0,30.21,ESE,112,0.0,0.0,11,0.00,,,0.00,meteohub,2013-07-13 19:27:00,
2013-07-13 15:28:00,85.3,25.0,30.21,East,90,0.0,0.0,11,0.00,,,0.00,meteohub,2013-07-13 19:28:00,
2013-07-13 15:33:00,85.1,24.8,30.21,WNW,292,0.0,0.0,11,0.00,,,0.00,meteohub,2013-07-13 19:33:00,
2013-07-13 15:38:00,85.3,25.0,30.21,East,90,0.0,1.0,11,0.00,,,0.00,meteohub,2013-07-13 19:38:00,
2013-07-13 15:43:00,85.5,29.1,30.21,ENE,68,0.0,1.0,13,0.00,,,0.00,meteohub,2013-07-13 19:43:00,
2013-07-13 15:48:00,84.7,24.4,30.21,SSE,158,0.0,1.0,11,0.00,,,0.00,meteohub,2013-07-13 19:48:00,
2013-07-13 15:53:00,85.1,28.8,30.21,ENE,68,0.0,1.0,13,0.00,,,0.00,meteohub,2013-07-13 19:53:00,
2013-07-13 15:59:00,85.3,28.9,30.21,North,0,0.0,1.0,13,0.00,,,0.00,meteohub,2013-07-13 19:59:00,
2013-07-13 16:04:00,85.6,29.3,30.21,ESE,112,0.0,1.0,13,0.00,,,0.00,meteohub,2013-07-13 20:04:00,
2013-07-13 16:09:00,85.6,29.3,30.21,NNE,22,0.0,0.0,13,0.00,,,0.00,meteohub,2013-07-13 20:09:00,
2013-07-13 16:14:00,85.8,25.3,30.21,East,90,0.0,0.0,11,0.00,,,0.00,meteohub,2013-07-13 20:14:00,
2013-07-13 16:19:00,86.0,29.5,30.21,SSW,202,0.0,0.0,13,0.00,,,0.00,meteohub,2013-07-13 20:19:00,
2013-07-13 16:24:00,86.0,25.5,30.21,ENE,68,0.0,0.0,11,0.00,,,0.00,meteohub,2013-07-13 20:24:00,
2013-07-13 16:29:00,86.0,25.5,30.21,ENE,68,0.0,1.0,11,0.00,,,0.00,meteohub,2013-07-13 20:29:00,
2013-07-13 16:34:00,86.4,25.7,30.21,NNE,22,0.0,1.0,11,0.00,,,0.00,meteohub,2013-07-13 20:34:00,
2013-07-13 16:39:00,86.4,25.7,30.21,SSE,158,0.0,1.0,11,0.00,,,0.00,meteohub,2013-07-13 20:39:00,
2013-07-13 16:44:00,86.2,25.5,30.21,SSE,158,0.0,0.0,11,0.00,,,0.00,meteohub,2013-07-13 20:44:00,
2013-07-13 16:49:00,85.5,25.0,30.21,ESE,112,0.0,0.0,11,0.00,,,0.00,meteohub,2013-07-13 20:49:00,
2013-07-13 16:55:00,85.1,24.8,30.21,ESE,112,0.0,0.0,11,0.00,,,0.00,meteohub,2013-07-13 20:55:00,
2013-07-13 17:00:00,85.5,29.1,30.21,East,90,0.0,1.0,13,0.00,,,0.00,meteohub,2013-07-13 21:00:00,
2013-07-13 17:05:00,86.2,29.7,30.21,NNE,22,0.0,1.0,13,0.00,,,0.00,meteohub,2013-07-13 21:05:00,
2013-07-13 17:10:00,86.7,30.0,30.21,ESE,112,0.0,1.0,13,0.00,,,0.00,meteohub,2013-07-13 21:10:00,
2013-07-13 17:15:00,86.7,26.1,30.21,NNW,338,0.0,0.0,11,0.00,,,0.00,meteohub,2013-07-13 21:15:00,
2013-07-13 17:20:00,86.7,30.0,30.21,ESE,112,0.0,0.0,13,0.00,,,0.00,meteohub,2013-07-13 21:20:00,
2013-07-13 17:25:00,86.9,26.1,30.21,ESE,112,0.0,0.0,11,0.00,,,0.00,meteohub,2013-07-13 21:25:00,
2013-07-13 17:30:00,86.2,29.7,30.21,ENE,68,1.0,0.0,13,0.00,,,0.00,meteohub,2013-07-13 21:30:00,
2013-07-13 17:35:00,86.2,25.5,30.21,ENE,68,0.0,1.0,11,0.00,,,0.00,meteohub,2013-07-13 21:35:00,
2013-07-13 17:40:00,86.0,29.5,30.21,ESE,112,1.0,1.0,13,0.00,,,0.00,meteohub,2013-07-13 21:40:00,
2013-07-13 17:46:00,85.6,29.3,30.21,NE,45,0.0,1.0,13,0.00,,,0.00,meteohub,2013-07-13 21:46:00,
2013-07-13 17:51:00,85.8,29.3,30.21,ESE,112,0.0,1.0,13,0.00,,,0.00,meteohub,2013-07-13 21:51:00,
2013-07-13 17:56:00,86.2,29.7,30.21,NE,45,0.0,1.0,13,0.00,,,0.00,meteohub,2013-07-13 21:56:00,
2013-07-13 18:01:00,86.7,30.0,30.21,East,90,0.0,0.0,13,0.00,,,0.00,meteohub,2013-07-13 22:01:00,
2013-07-13 18:06:00,86.0,29.5,30.21,East,90,0.0,1.0,13,0.00,,,0.00,meteohub,2013-07-13 22:06:00,
2013-07-13 18:11:00,85.8,29.3,30.21,SSE,158,0.0,1.0,13,0.00,,,0.00,meteohub,2013-07-13 22:11:00,
2013-07-13 18:16:00,85.5,29.1,30.21,SE,135,0.0,1.0,13,0.00,,,0.00,meteohub,2013-07-13 22:16:00,
2013-07-13 18:21:00,85.6,29.3,30.21,ESE,112,0.0,1.0,13,0.00,,,0.00,meteohub,2013-07-13 22:21:00,
2013-07-13 18:26:00,86.0,29.5,30.21,WNW,292,0.0,0.0,13,0.00,,,0.00,meteohub,2013-07-13 22:26:00,
2013-07-13 18:31:00,86.2,29.7,30.21,SSE,158,0.0,0.0,13,0.00,,,0.00,meteohub,2013-07-13 22:31:00,
2013-07-13 18:36:00,85.8,29.3,30.21,SSE,158,0.0,0.0,13,0.00,,,0.00,meteohub,2013-07-13 22:36:00,
2013-07-13 18:42:00,85.5,29.1,30.21,ENE,68,0.0,0.0,13,0.00,,,0.00,meteohub,2013-07-13 22:42:00,
2013-07-13 18:47:00,85.3,28.9,30.21,ESE,112,0.0,0.0,13,0.00,,,0.00,meteohub,2013-07-13 22:47:00,
2013-07-13 18:52:00,84.4,28.2,30.21,ESE,112,0.0,0.0,13,0.00,,,0.00,meteohub,2013-07-13 22:52:00,
2013-07-13 18:57:00,84.0,29.8,30.21,SSE,158,0.0,0.0,14,0.00,,,0.00,meteohub,2013-07-13 22:57:00,
2013-07-13 19:02:00,84.0,29.8,30.21,ESE,112,0.0,0.0,14,0.00,,,0.00,meteohub,2013-07-13 23:02:00,
2013-07-13 19:07:00,84.2,28.0,30.21,ESE,112,0.0,1.0,13,0.00,,,0.00,meteohub,2013-07-13 23:07:00,
2013-07-13 19:12:00,84.4,28.2,30.21,ESE,112,0.0,1.0,13,0.00,,,0.00,meteohub,2013-07-13 23:12:00,
2013-07-13 19:17:00,84.4,28.2,30.21,SSE,158,0.0,1.0,13,0.00,,,0.00,meteohub,2013-07-13 23:17:00,
2013-07-13 19:22:00,84.0,29.8,30.21,ESE,112,0.0,1.0,14,0.00,,,0.00,meteohub,2013-07-13 23:22:00,
2013-07-13 19:27:00,82.9,28.9,30.21,East,90,0.0,1.0,14,0.00,,,0.00,meteohub,2013-07-13 23:27:00,
2013-07-13 19:32:00,82.0,28.2,30.21,ESE,112,0.0,0.0,14,0.00,,,0.00,meteohub,2013-07-13 23:32:00,
2013-07-13 19:37:00,81.9,28.0,30.21,SSE,158,0.0,0.0,14,0.00,,,0.00,meteohub,2013-07-13 23:37:00,
2013-07-13 19:42:00,81.9,28.0,30.21,SSE,158,0.0,0.0,14,0.00,,,0.00,meteohub,2013-07-13 23:42:00,
2013-07-13 19:47:00,81.9,28.0,30.21,ESE,112,0.0,0.0,14,0.00,,,0.00,meteohub,2013-07-13 23:47:00,
2013-07-13 19:52:00,81.9,28.0,30.21,SSE,158,0.0,1.0,14,0.00,,,0.00,meteohub,2013-07-13 23:52:00,
2013-07-13 19:57:00,82.0,28.2,30.21,SSE,158,0.0,1.0,14,0.00,,,0.00,meteohub,2013-07-13 23:57:00,
2013-07-13 20:02:00,82.2,28.4,30.21,ENE,68,0.0,0.0,14,0.00,,,0.00,meteohub,2013-07-14 00:02:00,
2013-07-13 20:07:00,82.2,28.4,30.21,ESE,112,0.0,0.0,14,0.00,,,0.00,meteohub,2013-07-14 00:07:00,
2013-07-13 20:12:00,82.2,28.4,30.21,ESE,112,0.0,0.0,14,0.00,,,0.00,meteohub,2013-07-14 00:12:00,
2013-07-13 20:17:00,82.0,28.2,30.21,ESE,112,0.0,0.0,14,0.00,,,0.00,meteohub,2013-07-14 00:17:00,
2013-07-13 20:22:00,82.0,28.2,30.21,East,90,0.0,0.0,14,0.00,,,0.00,meteohub,2013-07-14 00:22:00,
2013-07-13 20:27:00,81.7,27.9,30.21,ESE,112,1.0,0.0,14,0.00,,,0.00,meteohub,2013-07-14 00:27:00,
2013-07-13 20:32:00,81.5,27.9,30.21,SSE,158,0.0,1.0,14,0.00,,,0.00,meteohub,2013-07-14 00:32:00,
2013-07-13 20:37:00,81.1,27.5,30.21,SSE,158,0.0,1.0,14,0.00,,,0.00,meteohub,2013-07-14 00:37:00,
2013-07-13 20:42:00,80.6,27.1,30.21,SSE,158,1.0,1.0,14,0.00,,,0.00,meteohub,2013-07-14 00:42:00,
2013-07-13 20:47:00,80.4,28.6,30.21,South,180,0.0,1.0,15,0.00,,,0.00,meteohub,2013-07-14 00:47:00,
2013-07-13 20:52:00,79.9,28.2,30.21,ESE,112,0.0,1.0,15,0.00,,,0.00,meteohub,2013-07-14 00:52:00,
2013-07-13 20:57:00,79.2,27.7,30.21,ESE,112,0.0,1.0,15,0.00,,,0.00,meteohub,2013-07-14 00:57:00,
2013-07-13 21:02:00,78.6,27.1,30.21,ESE,112,0.0,0.0,15,0.00,,,0.00,meteohub,2013-07-14 01:02:00,
2013-07-13 21:07:00,78.3,27.0,30.21,ESE,112,0.0,0.0,15,0.00,,,0.00,meteohub,2013-07-14 01:07:00,
2013-07-13 21:12:00,77.5,26.2,30.21,ESE,112,0.0,0.0,15,0.00,,,0.00,meteohub,2013-07-14 01:12:00,
2013-07-13 21:17:00,77.0,25.9,30.21,ESE,112,0.0,0.0,15,0.00,,,0.00,meteohub,2013-07-14 01:17:00,
2013-07-13 21:22:00,76.3,25.3,30.21,ESE,112,0.0,0.0,15,0.00,,,0.00,meteohub,2013-07-14 01:22:00,
2013-07-13 21:27:00,75.9,29.5,30.21,ESE,112,0.0,0.0,18,0.00,,,0.00,meteohub,2013-07-14 01:27:00,
2013-07-13 21:32:00,75.2,31.5,30.18,ESE,112,0.0,0.0,20,0.00,,,0.00,meteohub,2013-07-14 01:32:00,
2013-07-13 21:37:00,74.8,32.4,30.18,ESE,112,0.0,0.0,21,0.00,,,0.00,meteohub,2013-07-14 01:37:00,
2013-07-13 21:42:00,74.5,32.0,30.18,ESE,112,0.0,0.0,21,0.00,,,0.00,meteohub,2013-07-14 01:42:00,
2013-07-13 21:47:00,74.1,31.8,30.21,ESE,112,0.0,0.0,21,0.00,,,0.00,meteohub,2013-07-14 01:47:00,
2013-07-13 21:52:00,73.9,31.6,30.21,ESE,112,0.0,0.0,21,0.00,,,0.00,meteohub,2013-07-14 01:52:00,
2013-07-13 21:57:00,73.8,32.5,30.24,ESE,112,0.0,0.0,22,0.00,,,0.00,meteohub,2013-07-14 01:57:00,
2013-07-13 22:02:00,73.6,33.6,30.24,ESE,112,0.0,0.0,23,0.00,,,0.00,meteohub,2013-07-14 02:02:00,
2013-07-13 22:07:00,73.4,34.5,30.24,ESE,112,0.0,0.0,24,0.00,,,0.00,meteohub,2013-07-14 02:07:00,
2013-07-13 22:12:00,73.2,34.3,30.24,ESE,112,0.0,0.0,24,0.00,,,0.00,meteohub,2013-07-14 02:12:00,
2013-07-13 22:17:00,73.0,34.2,30.24,ESE,112,0.0,0.0,24,0.00,,,0.00,meteohub,2013-07-14 02:17:00,
2013-07-13 22:22:00,72.9,34.0,30.24,ESE,112,0.0,0.0,24,0.00,,,0.00,meteohub,2013-07-14 02:22:00,
2013-07-13 22:27:00,72.5,33.6,30.24,ESE,112,0.0,0.0,24,0.00,,,0.00,meteohub,2013-07-14 02:27:00,
2013-07-13 22:32:00,72.3,33.6,30.24,ESE,112,0.0,0.0,24,0.00,,,0.00,meteohub,2013-07-14 02:32:00,
2013-07-13 22:37:00,72.3,35.6,30.24,ESE,112,0.0,0.0,26,0.00,,,0.00,meteohub,2013-07-14 02:37:00,
2013-07-13 22:42:00,72.0,35.2,30.24,ESE,112,0.0,0.0,26,0.00,,,0.00,meteohub,2013-07-14 02:42:00,
2013-07-13 22:47:00,72.0,35.2,30.24,ESE,112,0.0,0.0,26,0.00,,,0.00,meteohub,2013-07-14 02:47:00,
2013-07-13 22:52:00,71.8,36.0,30.24,ESE,112,0.0,0.0,27,0.00,,,0.00,meteohub,2013-07-14 02:52:00,
2013-07-13 22:58:00,71.8,37.9,30.27,ESE,112,0.0,0.0,29,0.00,,,0.00,meteohub,2013-07-14 02:58:00,
2013-07-13 23:03:00,71.8,38.7,30.27,ESE,112,0.0,0.0,30,0.00,,,0.00,meteohub,2013-07-14 03:03:00,
2013-07-13 23:08:00,71.8,39.6,30.27,ESE,112,0.0,0.0,31,0.00,,,0.00,meteohub,2013-07-14 03:08:00,
2013-07-13 23:13:00,71.8,40.3,30.27,ESE,112,0.0,0.0,32,0.00,,,0.00,meteohub,2013-07-14 03:13:00,
2013-07-13 23:18:00,71.4,40.1,30.27,ESE,112,0.0,0.0,32,0.00,,,0.00,meteohub,2013-07-14 03:18:00,
2013-07-13 23:23:00,71.2,39.9,30.27,ESE,112,0.0,0.0,32,0.00,,,0.00,meteohub,2013-07-14 03:23:00,
2013-07-13 23:28:00,71.1,40.5,30.27,SSE,158,0.0,0.0,33,0.00,,,0.00,meteohub,2013-07-14 03:28:00,
2013-07-13 23:33:00,71.1,41.4,30.27,SE,135,0.0,0.0,34,0.00,,,0.00,meteohub,2013-07-14 03:33:00,
2013-07-13 23:38:00,71.1,41.4,30.27,SE,135,0.0,0.0,34,0.00,,,0.00,meteohub,2013-07-14 03:38:00,
2013-07-13 23:43:00,71.2,42.3,30.27,SE,135,0.0,0.0,35,0.00,,,0.00,meteohub,2013-07-14 03:43:00,
2013-07-13 23:48:00,71.2,42.3,30.27,SE,135,0.0,0.0,35,0.00,,,0.00,meteohub,2013-07-14 03:48:00,
2013-07-13 23:54:00,71.1,42.1,30.27,SE,135,0.0,0.0,35,0.00,,,0.00,meteohub,2013-07-14 03:54:00,
2013-07-13 23:59:00,71.1,41.4,30.24,SE,135,0.0,0.0,34,0.00,,,0.00,meteohub,2013-07-14 03:59:00,